Regional Weather Roundup
Issued by NWS

Home | Current Version | Previous Version | Graphics & Text | Print | Product List | Glossary On
Versions: 1 2 3 4 5 6 7 8 9 10 11 12 13 14 15 16 17 18 19 20 21 22 23 24 25 26 27 28 29 30 31 32 33 34 35 36 37 38 39 40 41 42 43 44 45 46 47 48 49 50
273
ASUS45 KBOI 270510
RWRID

IDAHO REGIONAL WEATHER ROUNDUP
NATIONAL WEATHER SERVICE BOISE ID
1100 PM MDT SUN MAR 26 2017

NOTE: "FAIR" INDICATES FEW OR NO CLOUDS BELOW 12000 FEET
WITH NO SIGNIFICANT WEATHER AND/OR OBSTRUCTIONS TO VISIBILITY

IDZ012-014-270600-
SOUTHWEST IDAHO


CITY           SKY/WX    TMP DP  RH WIND       PRES   REMARKS
BOISE          CLOUDY    48  35  60 SE10      29.86F
CALDWELL       CLOUDY    47  38  71 SE10      29.87S
MOUNTAIN HOME  MOCLDY    45  45 100 E10       29.88F
$$

IDZ016-017-270600-
SOUTHCENTRAL IDAHO


CITY           SKY/WX    TMP DP  RH WIND       PRES   REMARKS
BURLEY         CLOUDY    43  36  76 NE6       29.91S
JEROME         CLOUDY    43  38  82 E8        29.92R
TWIN FALLS     CLOUDY    42  37  82 E9        29.91S
$$

IDZ019>023-270600-
SOUTHEAST IDAHO


CITY           SKY/WX    TMP DP  RH WIND       PRES   REMARKS
IDAHO FALLS    LGT RAIN  42  37  82 S9        29.94S
POCATELLO      CLOUDY    42  37  82 SE3       29.93F
REXBURG        LGT RAIN  40  36  86 S12       29.93S WCI  33
$$

IDZ006-010-011-018-031-032-270600-
CENTRAL IDAHO MOUNTAINS


CITY           SKY/WX    TMP DP  RH WIND       PRES   REMARKS
MCCALL         CLOUDY    35  31  85 CALM      29.84F
HAILEY         CLOUDY    37  34  87 CALM      29.92S
STANLEY          N/A     33  27  78 S5        29.89S WCI  29
SALMON         CLOUDY    43  30  61 SW3       29.82F
CHALLIS        CLOUDY    43  29  57 SW8       29.85R
$$

IDZ002-004-006-007-026-270600-
NORTHERN IDAHO


CITY           SKY/WX    TMP DP  RH WIND       PRES   REMARKS
LEWISTON       CLOUDY    47  42  83 CALM      29.83S
LOWELL           N/A     43  39  86 NW5       29.88R
COEUR D`ALENE  LGT RAIN  42  40  92 S3        29.83S
MULLAN PASS    SNOW      30  30 100 VRB5      29.78S VSB 1/2 WCI  25
$$




USA.gov is the U.S. government's official web portal to all federal, state and local government web resources and services.